Benson, MN

7:57 AM CST on December 18, 2017 (GMT -0600)
Benson Municipal

Weather History for KBBB - September, 2013

Change the Weather History Date:

Tuesday, September 17, 2013

  Actual Average Record
Temperature  
Mean Temperature 56 °F -  
Max Temperature 64 °F 71 °F 94 °F (1955)
Min Temperature 48 °F 48 °F 34 °F (1959)
Degree Days  
Heating Degree Days 9    
Growing Degree Days 6 (Base 50)    
Moisture  
Dew Point 52 °F    
Average Humidity 87    
Maximum Humidity 100    
Minimum Humidity 73    
Precipitation  
Precipitation 0.00 in - - ()
Sea Level Pressure  
Sea Level Pressure 30.03 in    
Wind  
Wind Speed 11 mph (South)    
Max Wind Speed 20 mph    
Max Gust Speed 26 mph    
Visibility 9 miles    
Events Rain    
Averages and records for this station are not official NWS values.
T = Trace of Precipitation, MM = Missing Value Source: NWS Daily Summary

Daily Weather History Graph

Daily Weather History Graph

Search for Another Location

Airport or City:

Trip Planner

Search our weather history database for the weather conditions in past years. The results will help you decide how hot, cold, wet, or windy it might be!

Date:

Astronomy

Sep. 17, 2013 Rise Set
Actual Time 7:03 AM CDT 7:29 PM CDT
Civil Twilight 6:34 AM CDT 7:58 PM CDT
Nautical Twilight 5:59 AM CDT 8:33 PM CDT
Astronomical Twilight 5:23 AM CDT 9:09 PM CDT
Moon 6:19 PM CDT (9/17) 4:55 AM CDT (9/17)
Length of Visible Light 13h 24m
Length of Day
12h 25m
Waxing Gibbous, 96% of the Moon is Illuminated
Sep 17
Waxing Gibbous
Sep 19
Full
Sep 26
Last Quarter
Oct 4
New
Oct 11
First Quarter

Hourly Weather History & Observations

Time (CDT) Temp. Dew Point Humidity Pressure Visibility Wind Dir Wind Speed Gust Speed Precip Events Conditions
12:13 AM 53.6 °F 50.0 °F 88% 30.19 in 10.0 mi South 9.2 mph - N/A   Scattered Clouds
12:33 AM 53.6 °F 50.0 °F 88% 30.19 in 10.0 mi South 11.5 mph - N/A   Scattered Clouds
12:52 AM 53.6 °F 50.0 °F 88% 30.19 in 10.0 mi South 10.4 mph - N/A   Scattered Clouds
1:13 AM 53.6 °F 48.2 °F 82% 30.19 in 10.0 mi South 9.2 mph - N/A   Scattered Clouds
1:33 AM 51.8 °F 48.2 °F 88% 30.18 in 10.0 mi South 8.1 mph - N/A   Clear
1:52 AM 51.8 °F 48.2 °F 88% 30.18 in 10.0 mi South 8.1 mph - N/A   Clear
2:13 AM 51.8 °F 48.2 °F 88% 30.18 in 10.0 mi South 8.1 mph - N/A   Clear
2:33 AM 50.0 °F 48.2 °F 94% 30.17 in 10.0 mi South 6.9 mph - N/A   Clear
2:52 AM 50.0 °F 48.2 °F 94% 30.17 in 10.0 mi South 8.1 mph - N/A   Clear
3:13 AM 50.0 °F 46.4 °F 87% 30.17 in 10.0 mi South 6.9 mph - N/A   Clear
3:33 AM 48.2 °F 46.4 °F 93% 30.16 in 10.0 mi South 6.9 mph - N/A   Clear
3:52 AM 48.2 °F 46.4 °F 93% 30.16 in 10.0 mi South 6.9 mph - N/A   Clear
4:13 AM 48.2 °F 46.4 °F 93% 30.15 in 10.0 mi South 6.9 mph - N/A   Clear
4:33 AM 48.2 °F 46.4 °F 93% 30.14 in 10.0 mi South 8.1 mph - N/A   Clear
4:52 AM 48.2 °F 46.4 °F 93% 30.13 in 10.0 mi South 8.1 mph - N/A   Clear
5:13 AM 48.2 °F 46.4 °F 93% 30.13 in 10.0 mi South 9.2 mph - N/A   Clear
5:32 AM 48.2 °F 46.4 °F 93% 30.12 in 10.0 mi South 9.2 mph - N/A   Clear
5:53 AM 48.2 °F 46.4 °F 93% 30.11 in 10.0 mi South 10.4 mph - N/A   Clear
6:13 AM 48.2 °F 46.4 °F 93% 30.11 in 10.0 mi South 11.5 mph 16.1 mph N/A   Clear
6:32 AM 48.2 °F 46.4 °F 93% 30.10 in 10.0 mi South 11.5 mph - N/A   Clear
6:53 AM 50.0 °F 48.2 °F 94% 30.10 in 10.0 mi South 11.5 mph 16.1 mph N/A   Scattered Clouds
7:12 AM 51.8 °F 48.2 °F 88% 30.09 in 10.0 mi South 12.7 mph 17.3 mph N/A   Overcast
7:32 AM 51.8 °F 48.2 °F 88% 30.10 in 10.0 mi South 11.5 mph 16.1 mph N/A   Overcast
7:53 AM 51.8 °F 50.0 °F 94% 30.09 in 10.0 mi South 11.5 mph - N/A   Overcast
8:12 AM 53.6 °F 50.0 °F 88% 30.09 in 10.0 mi South 16.1 mph - N/A   Overcast
8:32 AM 53.6 °F 50.0 °F 88% 30.09 in 10.0 mi South 12.7 mph 18.4 mph N/A   Overcast
8:53 AM 53.6 °F 51.8 °F 94% 30.08 in 10.0 mi South 12.7 mph 17.3 mph N/A   Overcast
9:12 AM 53.6 °F 51.8 °F 94% 30.08 in 10.0 mi South 11.5 mph 21.9 mph N/A   Overcast
9:32 AM 55.4 °F 51.8 °F 88% 30.07 in 10.0 mi South 11.5 mph - N/A   Overcast
9:53 AM 55.4 °F 51.8 °F 88% 30.06 in 10.0 mi South 15.0 mph 20.7 mph N/A   Overcast
10:12 AM 57.2 °F 53.6 °F 88% 30.06 in 10.0 mi South 11.5 mph 20.7 mph N/A   Overcast
10:33 AM 57.2 °F 53.6 °F 88% 30.05 in 10.0 mi South 12.7 mph 19.6 mph N/A   Overcast
10:53 AM 59.0 °F 53.6 °F 82% 30.05 in 10.0 mi South 18.4 mph 24.2 mph N/A   Overcast
11:12 AM 59.0 °F 53.6 °F 82% 30.04 in 10.0 mi South 16.1 mph 23.0 mph N/A   Overcast
11:33 AM 60.8 °F 53.6 °F 77% 30.04 in 10.0 mi South 19.6 mph 23.0 mph N/A   Overcast
11:52 AM 60.8 °F 55.4 °F 82% 30.03 in 10.0 mi SSW 16.1 mph 26.5 mph N/A   Overcast
12:12 PM 60.8 °F 55.4 °F 82% 30.03 in 10.0 mi South 17.3 mph 23.0 mph N/A   Overcast
12:33 PM 62.6 °F 55.4 °F 77% 30.02 in 10.0 mi South 13.8 mph 20.7 mph N/A   Overcast
12:52 PM 62.6 °F 55.4 °F 77% 30.02 in 10.0 mi South 12.7 mph 21.9 mph N/A   Overcast
1:13 PM 62.6 °F 55.4 °F 77% 30.01 in 10.0 mi South 13.8 mph 19.6 mph N/A   Overcast
1:33 PM 64.4 °F 55.4 °F 73% 29.99 in 10.0 mi South 16.1 mph 21.9 mph N/A   Overcast
1:52 PM 62.6 °F 55.4 °F 77% 29.99 in 10.0 mi South 16.1 mph 24.2 mph N/A   Overcast
2:13 PM 62.6 °F 55.4 °F 77% 29.98 in 10.0 mi South 13.8 mph 18.4 mph N/A   Overcast
2:33 PM 62.6 °F 55.4 °F 77% 29.97 in 10.0 mi South 15.0 mph 26.5 mph N/A   Overcast
2:52 PM 64.4 °F 55.4 °F 73% 29.96 in 10.0 mi South 17.3 mph 21.9 mph N/A   Overcast
3:13 PM 62.6 °F 55.4 °F 77% 29.96 in 10.0 mi SSW 17.3 mph 21.9 mph N/A   Overcast
3:32 PM 62.6 °F 55.4 °F 77% 29.96 in 10.0 mi SSW 17.3 mph 25.3 mph N/A   Overcast
3:52 PM 62.6 °F 55.4 °F 77% 29.95 in 10.0 mi South 15.0 mph 20.7 mph N/A   Overcast
4:13 PM 62.6 °F 55.4 °F 77% 29.94 in 10.0 mi South 15.0 mph 19.6 mph N/A   Overcast
4:32 PM 62.6 °F 55.4 °F 77% 29.93 in 10.0 mi South 13.8 mph 17.3 mph N/A   Overcast
4:53 PM 62.6 °F 55.4 °F 77% 29.93 in 10.0 mi South 12.7 mph - N/A   Overcast
5:13 PM 62.6 °F 55.4 °F 77% 29.93 in 10.0 mi South 17.3 mph 21.9 mph N/A   Overcast
5:32 PM 62.6 °F 55.4 °F 77% 29.93 in 10.0 mi South 12.7 mph 17.3 mph N/A   Overcast
5:53 PM 60.8 °F 55.4 °F 82% 29.92 in 10.0 mi South 11.5 mph 17.3 mph N/A   Overcast
6:12 PM 60.8 °F 55.4 °F 82% 29.92 in 10.0 mi South 13.8 mph 19.6 mph N/A   Overcast
6:32 PM 60.8 °F 55.4 °F 82% 29.92 in 10.0 mi South 9.2 mph 18.4 mph N/A   Overcast
6:53 PM 60.8 °F 55.4 °F 82% 29.91 in 10.0 mi South 13.8 mph 20.7 mph N/A   Overcast
7:12 PM 59.0 °F 55.4 °F 88% 29.91 in 7.0 mi South 15.0 mph - N/A Rain Light Rain
7:32 PM 59.0 °F 55.4 °F 88% 29.91 in 10.0 mi South 17.3 mph - N/A   Overcast
7:53 PM 59.0 °F 55.4 °F 88% 29.90 in 7.0 mi South 12.7 mph 18.4 mph N/A   Overcast
8:12 PM 57.2 °F 55.4 °F 94% 29.90 in 7.0 mi South 11.5 mph - N/A   Overcast
8:33 PM 57.2 °F 55.4 °F 94% 29.91 in 7.0 mi South 12.7 mph 18.4 mph N/A   Overcast
8:53 PM 57.2 °F 55.4 °F 94% 29.90 in 7.0 mi South 11.5 mph 17.3 mph N/A   Overcast
9:12 PM 57.2 °F 55.4 °F 94% 29.90 in 7.0 mi South 8.1 mph - N/A   Overcast
9:33 PM 57.2 °F 55.4 °F 94% 29.90 in 7.0 mi South 10.4 mph 17.3 mph N/A   Overcast
9:52 PM 57.2 °F 55.4 °F 94% 29.90 in 7.0 mi South 11.5 mph - N/A   Overcast
10:12 PM 57.2 °F 55.4 °F 94% 29.90 in 5.0 mi South 11.5 mph 16.1 mph N/A   Overcast
10:33 PM 57.2 °F 55.4 °F 94% 29.89 in 4.0 mi South 8.1 mph - N/A   Overcast
10:52 PM 57.2 °F 55.4 °F 94% 29.89 in 3.0 mi South 10.4 mph - N/A   Overcast
11:12 PM 57.2 °F 57.2 °F 100% 29.89 in 4.0 mi South 10.4 mph - N/A   Overcast
11:33 PM 57.2 °F 57.2 °F 100% 29.88 in 4.0 mi South 10.4 mph - N/A   Overcast
11:52 PM 57.2 °F 57.2 °F 100% 29.88 in 4.0 mi South 9.2 mph - N/A   Overcast